Galena, AK

2:23 AM AKDT on March 25, 2017 (GMT -0800)
Pitka

Weather History for PAGA - November, 2012

Change the Weather History Date:

Thursday, November 29, 2012

  Actual Average Record
Temperature  
Mean Temperature -14 °F -  
Max Temperature -9 °F 5 °F 45 °F (1979)
Min Temperature -20 °F -10 °F -49 °F (1990)
Degree Days  
Heating Degree Days 80    
Moisture  
Dew Point -20 °F    
Average Humidity 78    
Maximum Humidity 86    
Minimum Humidity 74    
Precipitation  
Precipitation 0.00 in - - ()
Sea Level Pressure  
Sea Level Pressure 30.30 in    
Wind  
Wind Speed 3 mph (West)    
Max Wind Speed 6 mph    
Max Gust Speed -    
Visibility 10 miles    
Events      
Averages and records for this station are not official NWS values.
T = Trace of Precipitation, MM = Missing Value Source: NWS Daily Summary

Daily Weather History Graph

Daily Weather History Graph

Search for Another Location

Airport or City:

Trip Planner

Search our weather history database for the weather conditions in past years. The results will help you decide how hot, cold, wet, or windy it might be!

Date:

Astronomy

Nov. 29, 2012 Rise Set
Actual Time 10:50 AM AKST 3:41 PM AKST
Civil Twilight 9:37 AM AKST 4:54 PM AKST
Nautical Twilight 8:30 AM AKST 6:02 PM AKST
Astronomical Twilight 7:30 AM AKST 7:01 PM AKST
Moon 4:51 PM AKST (11/29) 11:49 AM AKST (11/29)
Length of Visible Light 7h 17m
Length of Day
4h 51m
Full, 99% of the Moon is Illuminated
Nov 29
Full
Dec 6
Last Quarter
Dec 12
New
Dec 19
First Quarter
Dec 28
Full

Hourly Weather History & Observations

Time (AKST) Temp. Windchill Dew Point Humidity Pressure Visibility Wind Dir Wind Speed Gust Speed Precip Events Conditions
12:58 AM -15.0 °F -25.0 °F -20.0 °F 78% 30.33 in 10.0 mi West 3.5 mph - N/A   Clear
1:58 AM -15.0 °F -29.3 °F -20.0 °F 78% 30.31 in 10.0 mi West 5.8 mph - N/A   Clear
2:58 AM -14.1 °F - -18.9 °F 79% 30.30 in 10.0 mi Calm Calm - N/A   Clear
3:58 AM -18.9 °F - -24.0 °F 78% 30.30 in 10.0 mi Calm Calm - N/A   Clear
4:58 AM -18.0 °F -30.9 °F -24.0 °F 74% 30.29 in 10.0 mi West 4.6 mph - N/A   Clear
5:58 AM -17.0 °F -27.2 °F -22.0 °F 78% 30.28 in 10.0 mi WNW 3.5 mph - N/A   Clear
6:58 AM -18.0 °F - -23.1 °F 78% 30.28 in 10.0 mi Calm Calm - N/A   Clear
7:58 AM -20.0 °F - -26.0 °F 74% 30.27 in 10.0 mi Calm Calm - N/A   Clear
8:58 AM -18.0 °F - -23.1 °F 78% 30.27 in 8.0 mi Calm Calm - N/A   Clear
9:58 AM -20.0 °F - -25.1 °F 78% 30.27 in 10.0 mi Calm Calm - 0.00 in   Clear
10:58 AM -18.9 °F -29.5 °F -24.0 °F 78% 30.27 in 10.0 mi NW 3.5 mph - N/A   Clear
11:58 AM -17.0 °F -29.7 °F -23.1 °F 74% 30.27 in 8.0 mi SSE 4.6 mph - N/A   Clear
12:58 PM -11.0 °F - -16.1 °F 78% 30.28 in 10.0 mi Calm Calm - N/A   Clear
1:58 PM -9.9 °F -23.4 °F -15.0 °F 78% 30.27 in 10.0 mi WNW 5.8 mph - N/A   Clear
2:58 PM -9.9 °F -21.5 °F -14.1 °F 82% 30.28 in 10.0 mi West 4.6 mph - N/A   Clear
3:58 PM -11.0 °F -20.4 °F -16.1 °F 78% 30.28 in 10.0 mi WSW 3.5 mph - N/A   Clear
4:58 PM -11.0 °F - -14.1 °F 86% 30.29 in 10.0 mi Calm Calm - N/A   Clear
5:58 PM -14.1 °F -23.9 °F -18.9 °F 79% 30.32 in 10.0 mi West 3.5 mph - N/A   Clear
6:58 PM -14.1 °F - -18.9 °F 79% 30.32 in 10.0 mi Calm Calm - N/A   Clear
8:58 PM -15.0 °F - -20.0 °F 78% 30.33 in 10.0 mi Calm Calm - N/A   Clear
9:58 PM -11.9 °F - -16.1 °F 82% 30.34 in 10.0 mi Calm Calm - N/A   Clear
10:58 PM -16.1 °F -28.6 °F -20.0 °F 82% 30.34 in 10.0 mi West 4.6 mph - N/A   Clear
11:58 PM -18.9 °F -29.5 °F -25.1 °F 74% 30.33 in 5.0 mi West 3.5 mph - N/A   Haze